[Date Prev][Date Next][Thread Prev][Thread Next] - [Date Index][Thread Index][Author Index]

2 Line ISS Keps 3-7



ISS
1 25544U 98067A   05064.84328234 +.00009798 +00000-0 +82902-4 0 09515
2 25544 051.6457 069.5470 0004107 156.9935 273.6645 15.70471548359430
----
Via the sarex mailing list at AMSAT.ORG courtesy of AMSAT-NA.
To unsubscribe, send "unsubscribe sarex" to Majordomo@amsat.org



AMSAT Top AMSAT Home